Wind_Speed
27 25 24 25 24 24 23 22 22 21 21 21 21 20 21 21 21 20 19 19 18 17 17 16 15 15 14 14 14 15 15 15 15 15 15 16 17 17 17 17 17 16 15 13 13 13 13 13 12 12 11 11 11 12 12 12 12 12 13 14 15 16 17 18 19 20 22 24 26 28 29 30 31 32 33 34 36 37 37 38 39 40 42 43 45
27 26 25 25 25 24 24 23 23 22 22 22 21 21 21 21 21 21 20 19 19 19 18 17 16 15 15 15 14 15 15 15 15 15 16 16 17 17 17 17 17 15 14 13 13 14 13 12 12 11 11 11 11 12 12 12 12 13 14 15 16 17 19 20 21 22 23 25 27 29 30 31 32 34 35 36 37 38 39 39 40 41 43 44 46
28 27 26 26 26 26 25 24 23 23 23 22 22 22 21 22 22 22 21 20 20 20 19 18 18 17 16 15 15 15 15 14 14 15 16 16 17 17 17 17 16 14 14 13 13 14 13 12 11 11 10 10 11 11 12 12 13 14 15 16 17 18 20 21 23 25 26 27 28 31 32 33 34 35 36 37 38 39 40 40 40 42 44 45 47
29 28 27 26 26 27 26 25 24 24 24 23 22 22 22 23 23 22 22 22 21 21 20 20 19 17 16 15 15 14 14 14 14 15 16 17 17 17 17 16 15 14 14 14 14 14 13 12 11 10 10 10 10 11 11 12 13 14 15 17 18 19 20 22 24 26 27 29 29 31 33 35 36 37 37 38 39 40 41 41 41 42 44 46 48
29 28 28 27 27 27 27 26 26 25 24 24 23 23 23 24 24 24 23 23 23 22 22 21 19 17 16 15 14 14 14 14 15 15 16 17 17 17 16 15 14 14 14 14 14 14 13 12 10 10 9 9 10 10 11 12 13 14 16 17 18 19 21 22 24 26 28 29 30 32 34 36 37 37 38 39 39 40 42 42 42 43 45 47 49
30 30 29 27 27 27 27 27 27 26 25 24 24 24 25 25 25 25 25 24 24 23 23 21 20 18 17 15 14 14 14 15 15 16 16 17 17 16 15 15 14 14 14 14 14 14 12 11 10 10 9 9 10 10 11 12 13 15 16 17 18 19 21 22 24 26 28 30 31 33 34 36 38 39 38 39 40 41 43 44 43 44 46 48 50
31 31 30 28 27 27 28 28 27 27 26 24 24 25 26 26 26 26 26 26 25 24 24 23 21 20 17 16 15 14 14 14 15 15 16 17 16 16 15 15 14 15 15 15 15 14 12 10 10 9 9 10 10 11 11 12 13 15 16 17 18 20 21 22 24 26 28 30 32 33 35 37 38 39 39 39 40 41 43 45 46 47 48 49 51
32 32 30 29 28 28 29 28 28 28 26 25 25 26 27 27 27 27 27 27 26 26 25 25 23 21 20 18 16 15 14 13 14 15 15 16 15 15 15 15 15 15 15 15 15 13 11 10 10 9 10 10 10 11 12 13 14 15 16 17 19 20 21 23 24 26 28 30 32 34 36 37 38 39 40 40 41 42 43 46 48 49 50 50 51
33 32 31 29 28 29 29 29 30 29 27 26 27 27 28 27 26 27 27 28 27 27 27 27 26 25 24 22 20 17 13 11 12 14 15 15 15 14 14 15 15 15 15 15 14 12 11 10 10 9 10 11 12 12 13 13 14 15 16 17 19 20 22 24 25 27 28 30 33 35 36 37 39 40 41 41 42 43 44 46 48 49 50 51 51
33 33 32 30 29 30 30 30 30 29 29 29 28 28 28 27 26 27 28 28 28 28 29 29 29 28 25 22 21 17 12 9 11 13 14 15 15 14 14 14 15 15 14 14 13 11 10 9 8 9 11 12 13 13 13 14 15 15 16 18 19 21 22 24 25 27 29 30 33 35 37 38 39 40 41 42 42 43 45 46 48 49 50 51 52
33 33 33 31 30 30 31 31 30 30 30 30 29 29 28 27 27 27 27 28 28 29 30 29 25 22 20 19 20 18 14 12 11 12 13 15 14 14 14 14 15 14 13 13 12 10 9 8 9 12 13 13 12 12 13 14 15 16 17 18 20 22 23 25 26 28 30 31 33 35 38 38 39 40 41 42 43 44 45 46 47 49 50 51 53
34 34 33 32 31 31 31 30 30 31 31 30 29 29 27 25 25 25 25 26 28 28 28 26 21 18 18 21 21 19 18 15 11 11 13 14 14 14 14 15 15 14 13 12 10 9 9 10 12 13 12 11 11 12 13 15 16 17 18 19 20 22 24 26 28 30 31 33 34 36 38 38 38 39 40 42 44 44 44 44 46 47 48 50 53
35 35 34 32 31 30 30 31 31 31 31 29 29 29 27 25 23 23 25 26 25 23 22 21 20 20 20 20 19 18 17 14 11 12 13 14 14 15 15 15 14 13 12 11 10 10 11 13 12 11 10 10 11 12 13 15 16 17 18 19 21 22 24 26 28 30 32 34 36 37 37 38 38 39 40 42 43 44 44 44 44 46 47 49 51
36 36 34 32 30 30 31 32 32 32 31 29 29 29 28 27 25 23 23 23 21 20 19 20 21 21 18 16 16 15 15 13 11 12 14 14 15 15 15 14 13 12 12 11 10 11 12 12 11 10 10 10 11 12 14 14 16 17 19 20 22 24 25 26 28 30 32 35 37 37 37 38 38 39 39 40 41 42 43 43 44 45 47 48 50
37 35 33 31 31 30 31 32 32 32 31 30 30 29 29 28 26 24 23 23 23 22 21 21 22 21 17 15 15 14 13 13 13 14 15 15 15 15 15 14 13 12 11 11 12 12 11 11 10 9 9 9 10 12 13 14 16 17 19 21 23 24 25 26 28 30 31 33 35 36 37 37 37 37 37 38 38 39 40 41 42 45 46 47 48
35 33 32 32 31 30 30 31 31 32 31 31 31 30 29 28 26 25 25 25 24 22 20 20 20 19 17 16 16 15 14 14 14 15 15 15 15 15 14 14 13 12 12 12 12 12 11 10 9 8 8 9 10 11 12 14 15 17 18 20 21 23 24 25 26 28 30 31 33 35 35 35 34 34 34 34 36 37 38 40 42 43 45 46 48
33 32 32 32 30 29 30 30 31 31 31 32 32 30 29 28 26 27 26 24 22 21 19 19 19 18 18 19 18 17 15 15 15 15 15 15 14 15 15 14 13 13 13 13 12 11 11 10 8 7 7 9 10 11 12 13 15 16 18 19 20 21 23 24 25 27 29 31 33 33 32 32 31 32 32 33 35 37 39 41 41 42 43 46 48
33 32 32 31 30 30 30 30 31 32 32 33 32 30 29 28 27 26 25 23 21 20 18 18 19 18 20 21 20 18 16 15 15 14 15 15 15 15 15 15 14 14 14 13 13 12 11 9 8 7 7 8 9 10 11 13 14 16 17 19 20 21 22 23 24 26 28 30 31 31 32 32 33 33 34 35 35 36 38 39 39 40 42 44 47
32 32 31 30 29 29 30 30 31 31 32 32 30 29 29 28 27 26 24 23 21 20 19 19 19 20 22 22 20 19 17 15 15 15 15 15 15 16 16 16 16 16 15 14 13 11 10 9 8 7 7 8 9 10 11 13 14 16 17 18 19 20 22 23 25 26 28 29 31 33 35 36 36 36 36 36 36 35 35 34 35 37 40 42 45
29 29 28 28 28 29 29 30 30 30 30 29 28 28 28 28 28 27 25 24 23 23 23 21 19 21 23 22 20 19 17 16 15 15 15 16 16 17 17 17 17 16 15 14 13 12 11 10 9 8 8 8 9 10 11 13 14 16 17 18 19 20 21 23 25 27 28 30 34 37 38 38 37 37 37 37 37 35 33 31 32 35 38 40 43
24 25 26 27 28 29 29 29 29 29 28 27 27 28 28 27 28 28 27 26 25 24 23 21 19 21 23 23 22 19 17 16 16 16 16 16 17 18 18 18 18 16 15 15 14 12 12 11 9 8 8 8 9 10 11 13 14 16 17 18 19 21 22 23 25 26 28 31 35 37 38 38 37 37 38 37 36 35 33 32 32 32 35 38 41
22 23 25 27 28 28 28 28 29 28 27 28 29 29 28 29 30 31 30 28 27 25 23 21 20 22 23 24 24 20 16 16 17 17 17 17 18 19 19 19 17 16 16 16 14 13 13 12 9 8 8 8 9 10 11 13 14 16 17 18 19 20 22 24 25 26 29 32 35 37 38 38 37 38 38 37 36 35 36 36 33 30 31 35 38
22 23 25 26 26 25 26 27 28 28 30 32 33 32 32 33 33 34 33 29 26 24 22 20 21 23 23 24 22 18 16 17 17 18 18 18 18 19 19 18 18 17 16 16 14 14 14 12 9 9 9 9 10 11 12 13 14 16 17 18 19 21 22 24 25 27 30 32 34 37 38 38 38 38 37 37 38 39 39 37 34 30 29 31 35
23 23 24 24 23 23 24 25 27 30 33 35 36 35 34 33 33 33 31 26 22 20 19 19 21 21 20 20 20 19 17 18 18 18 18 19 19 19 19 19 19 17 16 16 16 16 14 11 10 10 9 9 10 11 12 13 15 16 17 18 20 21 22 23 25 28 30 31 34 37 37 37 37 37 38 39 40 40 39 36 34 30 28 28 32
23 23 24 23 23 23 23 24 25 28 32 34 34 33 31 30 31 29 25 20 18 18 18 18 19 19 19 19 20 20 19 18 19 19 20 20 20 20 20 20 19 18 17 16 16 15 14 12 11 10 10 10 10 11 12 13 15 17 18 18 19 20 22 24 26 28 29 32 34 36 37 37 37 37 38 39 39 38 38 37 36 33 29 27 30
23 24 24 23 23 23 23 23 24 26 29 31 32 32 30 29 29 26 22 19 19 19 18 18 18 18 18 18 20 21 20 19 20 20 20 20 20 20 20 20 19 18 17 17 17 16 15 14 12 11 10 10 11 12 13 14 15 17 17 17 18 20 22 25 26 27 29 32 33 35 36 37 37 37 38 38 38 37 38 39 38 36 32 30 31
24 24 24 23 23 23 23 23 24 26 28 31 33 32 30 29 28 26 24 23 22 21 20 19 18 17 17 18 20 21 20 20 21 20 20 20 21 21 21 20 19 18 18 18 18 18 16 14 13 12 11 11 12 12 13 14 15 17 17 18 20 22 23 24 26 28 30 31 32 34 36 37 37 37 37 38 36 36 38 39 40 39 36 34 33
24 24 23 23 23 23 22 22 24 25 27 29 31 30 28 28 27 26 25 25 24 22 22 20 19 18 19 20 21 20 20 20 20 20 20 21 22 22 21 20 20 19 19 19 19 18 17 15 14 13 13 12 13 13 13 14 15 17 18 20 21 22 23 25 26 28 29 31 32 34 35 36 37 37 37 37 35 35 38 39 40 41 38 35 34
26 25 24 24 23 22 22 22 23 24 24 24 27 29 29 28 26 24 24 23 22 22 22 22 21 20 20 21 21 20 19 20 19 19 21 22 23 23 22 21 21 20 19 19 19 19 18 16 15 15 14 14 13 13 14 15 16 18 20 20 20 21 22 24 25 26 28 30 31 34 35 36 37 37 37 36 34 35 38 40 41 42 39 35 34
26 24 22 20 19 19 20 20 21 22 22 22 23 25 26 26 26 25 25 23 21 22 23 23 22 22 22 23 22 20 19 20 20 21 22 24 25 24 23 22 21 20 19 20 20 20 19 18 17 16 15 14 14 13 13 14 15 17 19 20 20 21 22 23 24 25 27 29 31 33 34 35 36 37 36 36 35 35 37 38 39 41 39 36 34
25 22 19 18 18 18 19 19 20 21 22 22 23 23 25 27 28 26 24 23 21 22 22 23 23 23 23 24 23 20 20 21 21 22 24 25 25 24 23 22 21 20 20 21 21 21 20 19 18 17 16 15 14 13 13 14 15 17 19 20 20 21 22 23 24 25 27 29 30 32 33 35 36 35 35 36 36 34 35 36 37 39 39 36 33
26 23 22 23 23 23 22 21 20 21 22 23 24 24 25 27 27 26 24 23 22 22 21 22 22 22 22 24 23 22 21 22 22 24 26 26 25 25 24 23 22 21 21 22 22 22 22 21 19 18 16 15 15 14 14 14 15 17 19 20 21 21 22 24 24 25 26 28 30 31 33 34 34 34 34 35 34 33 32 34 36 38 39 37 33
25 25 25 25 25 25 24 23 22 23 23 24 25 25 26 27 26 25 24 22 22 21 21 20 21 21 23 24 24 22 22 23 24 25 26 26 26 27 26 24 23 22 22 22 23 23 23 21 20 18 17 16 15 15 15 15 16 17 19 20 21 21 22 23 25 25 26 27 28 30 31 32 33 33 32 31 31 30 31 33 34 35 37 37 35
25 25 25 24 24 24 24 23 23 23 25 26 26 26 25 25 25 24 22 21 21 21 22 21 21 21 22 24 23 21 21 24 26 26 26 27 28 28 26 25 24 23 22 23 24 24 23 22 20 19 18 17 16 16 15 15 16 17 19 20 20 21 22 23 24 25 25 26 27 28 29 31 31 31 31 30 30 29 29 30 32 33 34 36 36
25 24 24 24 24 24 23 23 24 25 27 27 26 24 23 24 23 22 21 20 20 21 21 21 20 20 21 23 22 20 21 24 26 25 26 28 28 28 27 26 24 23 23 24 25 24 23 22 21 19 18 17 17 16 16 16 16 17 18 20 20 21 22 23 24 25 25 25 26 27 27 29 31 31 31 31 30 27 25 27 29 31 32 33 35
25 25 25 25 25 25 24 24 25 27 27 26 23 22 23 24 23 22 21 21 21 22 22 22 21 21 22 23 24 22 22 24 25 25 26 28 29 28 27 26 24 23 24 25 25 24 23 23 22 20 19 18 18 17 17 17 17 18 19 20 20 20 21 22 23 24 25 24 25 26 27 29 30 31 30 29 27 23 22 24 27 28 29 31 33
26 25 25 25 25 25 24 24 26 27 26 24 23 24 25 26 25 24 23 23 22 22 23 23 22 23 24 24 25 25 24 25 26 26 27 28 29 28 27 25 25 25 25 26 25 24 24 24 23 21 20 19 19 18 17 18 18 18 19 20 20 20 21 22 23 24 25 25 25 26 27 28 29 29 28 27 25 22 21 23 25 24 25 28 31
25 25 25 25 24 23 22 23 25 26 25 25 25 25 26 26 25 23 23 23 22 22 24 25 25 25 25 24 25 26 26 26 27 27 27 28 28 28 26 25 26 26 27 26 25 25 25 24 23 22 21 20 20 19 18 18 19 19 19 20 20 21 21 22 23 24 25 26 26 26 26 26 26 27 27 27 25 23 21 20 22 22 24 27 29
24 24 25 24 24 22 22 22 25 26 25 25 26 27 27 25 23 21 22 22 22 22 24 26 26 25 24 24 25 26 27 27 27 28 27 27 27 27 27 27 27 28 27 26 25 25 25 24 23 22 21 21 21 20 19 19 20 20 20 20 21 21 22 22 23 24 25 25 25 24 24 24 25 26 26 26 25 24 21 18 19 22 25 26 26
23 23 22 22 21 22 22 22 23 24 24 25 25 27 27 25 22 21 22 23 24 23 23 24 25 24 23 22 22 24 25 26 26 27 27 27 28 28 28 28 29 29 28 27 26 25 25 24 23 22 22 22 21 20 20 20 21 21 21 21 21 21 22 22 23 24 24 24 24 24 24 24 24 25 25 25 23 22 20 18 19 22 23 24 24
20 19 19 18 18 19 20 20 20 21 23 24 25 26 26 24 22 22 23 25 25 24 22 22 24 25 23 20 20 22 24 25 26 27 28 28 29 29 29 29 29 29 27 26 26 25 24 23 22 22 22 22 22 21 21 21 21 21 22 22 22 22 22 22 23 24 24 24 25 25 24 24 23 24 24 24 22 22 21 19 19 19 20 20 22
18 17 17 17 17 17 17 17 18 20 22 24 25 27 27 25 23 23 24 25 24 22 21 21 23 25 24 21 19 21 24 26 27 28 29 29 30 30 29 29 29 29 27 27 26 24 23 22 21 22 23 23 22 22 22 22 22 22 22 23 23 23 22 22 23 23 24 24 24 25 25 25 24 23 23 23 23 22 20 18 16 16 17 18 20
17 17 18 18 18 18 18 18 19 20 22 23 25 26 25 23 22 22 22 22 21 20 20 21 23 26 25 22 19 20 24 26 27 29 30 31 31 31 30 29 29 29 28 27 26 24 23 22 22 22 23 23 23 23 23 22 22 23 23 24 24 23 23 23 23 23 23 24 24 24 24 24 25 24 24 24 23 23 21 19 17 16 16 17 19
16 18 20 20 19 19 19 19 20 21 22 23 24 24 23 22 21 21 20 19 18 17 18 20 23 25 25 23 20 21 24 27 28 30 31 31 31 30 30 29 29 30 30 28 26 24 24 24 23 23 23 23 23 23 23 23 23 24 24 24 24 24 23 23 23 23 23 23 23 23 24 24 24 24 24 23 23 23 23 22 20 18 18 17 18
19 20 21 20 20 20 20 19 20 21 22 22 23 23 22 21 22 22 21 19 17 17 18 20 22 23 24 23 21 21 24 27 29 30 31 31 31 30 30 29 29 30 30 28 26 26 25 25 25 24 23 23 23 23 23 24 24 24 25 25 25 24 23 23 23 23 23 22 22 23 24 24 24 24 23 22 21 22 22 21 20 19 18 17 17
22 22 22 21 21 20 19 19 19 20 20 21 21 22 22 22 23 23 22 21 20 19 20 20 21 21 22 22 21 20 23 26 29 30 31 30 30 30 30 29 29 30 30 29 28 27 27 26 25 24 24 24 24 24 24 24 25 25 25 25 25 25 24 23 23 23 24 23 23 23 23 24 24 24 24 23 22 22 22 22 21 19 18 18 17
21 21 21 21 20 19 19 19 18 18 18 19 20 21 22 23 24 24 24 25 25 24 22 20 19 20 22 22 21 20 22 26 28 29 29 29 29 30 31 30 30 31 31 30 29 28 26 24 24 24 24 25 25 24 24 25 25 26 26 26 25 25 24 24 23 23 24 24 24 24 23 23 24 24 23 23 23 23 23 23 23 22 21 20 19
21 21 21 21 21 21 20 18 17 17 17 17 20 23 24 25 27 27 27 28 29 26 22 20 21 22 23 24 23 22 23 25 27 28 29 30 30 30 31 31 32 32 31 31 29 26 24 24 24 24 25 25 25 25 25 25 26 26 26 26 26 25 24 23 23 23 24 24 24 25 24 24 23 23 23 23 22 22 23 23 23 22 22 22 21
21 21 20 20 21 21 20 17 16 17 19 20 22 24 25 27 29 30 28 27 27 25 24 23 24 25 26 26 25 24 23 24 26 28 30 32 31 30 31 32 33 33 32 30 28 26 26 26 26 25 25 25 25 25 25 26 26 27 27 26 26 26 24 23 23 24 24 24 24 25 24 24 24 23 23 23 23 23 23 23 22 22 23 22 22
18 19 20 21 22 21 21 19 17 18 21 23 23 24 25 27 28 28 27 25 24 24 24 25 26 27 27 27 26 25 25 24 24 27 31 33 31 29 29 31 32 32 31 30 29 28 29 28 27 26 26 26 26 26 26 26 26 27 27 27 26 25 24 24 24 24 24 24 24 24 24 24 24 23 23 23 24 24 24 23 23 23 23 23 23
17 18 21 22 22 21 21 20 18 18 21 23 23 23 24 25 25 25 25 24 24 23 24 25 27 27 27 26 25 25 25 25 25 27 30 30 29 27 28 29 30 30 29 29 29 28 28 27 25 25 26 26 26 25 26 26 27 27 27 27 26 25 25 25 24 24 24 24 24 24 24 24 23 23 23 24 24 25 24 24 24 23 24 24 24
Wind_Direction
219 220 222 224 227 230 234 236 235 234 233 232 232 232 232 232 234 239 240 238 238 243 248 250 254 261 266 270 272 274 275 276 278 279 278 276 273 271 270 270 272 275 280 285 287 289 290 291 291 291 294 300 306 310 311 311 312 314 318 322 324 325 324 323 324 326 326 325 325 326 327 328 330 330 330 333 335 337 340 343 342 341 342 342 341
221 222 222 225 228 231 233 235 234 234 233 234 234 234 234 234 236 240 240 237 239 243 247 250 255 262 267 271 273 275 276 277 277 277 276 274 272 271 270 271 273 276 280 283 284 285 287 286 287 290 295 303 308 311 312 313 316 319 324 327 328 327 326 326 328 328 328 329 328 329 330 332 332 332 333 336 337 339 342 344 343 343 344 344 342
222 224 224 226 229 230 232 233 233 233 233 234 234 235 236 237 239 241 239 238 240 243 246 249 254 262 266 270 272 274 275 275 276 276 275 274 272 271 270 271 274 277 279 281 282 283 283 284 286 291 298 304 309 312 314 317 320 324 329 330 329 328 328 330 330 330 330 332 332 333 334 334 334 335 336 336 338 340 340 342 345 345 345 345 343
222 225 226 227 229 231 232 233 232 231 232 233 233 235 237 238 241 242 240 238 240 242 245 249 255 262 266 270 272 274 277 278 278 278 276 274 271 269 270 271 274 276 277 279 280 280 282 284 287 292 298 305 310 314 317 320 324 328 330 329 329 330 331 331 332 331 332 334 335 336 336 336 336 337 336 336 339 339 338 342 346 346 346 346 345
223 225 226 228 229 231 232 232 232 231 232 231 232 235 238 240 242 242 239 239 241 243 246 250 256 262 265 268 271 275 280 282 282 280 277 274 271 270 272 273 274 276 277 278 279 280 281 283 288 293 299 306 312 315 318 321 326 329 329 329 330 331 332 333 332 333 334 334 336 338 338 337 336 336 337 337 338 337 337 341 346 345 346 347 347
222 225 227 228 229 230 231 231 231 231 231 231 232 234 237 240 242 241 240 241 243 245 248 252 257 260 261 265 271 277 282 283 283 280 276 274 273 274 275 275 275 276 277 279 279 279 281 284 288 294 302 309 314 316 319 324 328 328 327 328 330 331 333 333 334 335 335 335 338 339 339 338 336 336 338 338 338 338 337 340 344 346 346 348 349
222 226 228 229 229 230 230 230 231 232 232 232 232 233 236 240 242 242 242 243 245 247 250 254 256 256 257 261 266 273 278 281 281 279 277 276 276 277 278 278 277 277 278 279 279 279 281 285 291 299 306 311 314 316 321 325 327 326 327 328 331 332 333 334 335 336 336 337 339 340 340 338 336 336 338 338 339 340 339 339 343 346 347 348 349
222 226 229 229 229 231 231 231 231 232 233 233 234 235 238 240 243 244 245 246 248 251 253 256 256 255 254 256 260 264 271 278 281 279 279 278 277 279 280 279 279 279 279 279 278 280 283 288 297 303 308 313 316 318 321 324 325 325 327 329 332 333 333 335 337 337 338 339 340 340 339 338 337 337 338 339 340 341 341 341 343 345 346 347 348
221 225 229 230 231 232 232 231 232 233 233 234 236 237 239 242 245 248 249 250 252 254 256 258 258 255 250 248 248 248 250 266 279 280 281 279 277 277 277 278 279 278 278 279 279 281 286 294 301 305 313 317 316 315 317 321 324 326 330 332 332 333 335 337 337 338 339 340 340 339 339 339 339 339 339 341 341 342 343 343 343 344 344 345 347
220 224 229 231 232 232 231 230 232 233 234 236 238 239 242 245 248 251 253 255 256 258 260 261 259 256 253 252 252 248 243 258 277 281 278 275 273 273 274 276 275 276 277 278 279 283 289 295 301 309 313 310 307 310 316 321 325 328 332 333 334 335 337 337 337 338 340 342 341 340 340 341 342 341 340 341 341 342 344 343 342 343 344 343 345
219 223 229 232 232 232 231 230 232 234 236 238 240 243 244 245 248 253 256 258 260 264 268 271 271 268 265 264 265 270 280 285 280 274 270 268 269 271 271 271 271 273 274 274 276 281 285 292 301 304 302 298 301 311 318 323 328 332 335 336 337 339 338 338 339 340 342 342 342 342 341 343 344 343 341 340 341 343 344 342 341 342 343 343 345
219 223 228 232 233 233 232 231 232 235 238 240 243 246 246 244 248 255 258 261 262 264 270 279 290 294 281 268 265 273 284 286 276 264 262 263 265 266 266 267 268 270 270 269 271 274 280 292 298 296 291 294 305 314 321 327 331 335 337 338 339 340 340 340 341 342 342 342 343 344 344 344 345 344 342 341 342 343 342 341 341 342 343 346 348
219 224 228 231 233 235 234 233 234 236 239 242 244 247 248 247 251 257 260 263 263 262 268 281 295 298 286 274 269 272 277 279 270 261 259 260 262 263 263 265 267 269 268 266 265 272 284 292 292 286 288 299 310 317 324 329 332 335 335 335 338 340 341 342 342 342 343 343 344 346 345 344 345 345 344 342 341 340 340 341 341 341 344 348 350
220 224 228 231 233 235 235 235 236 238 241 243 245 248 250 251 253 255 258 262 266 270 279 285 290 291 281 268 264 267 273 276 269 261 260 260 260 260 261 263 266 268 264 260 264 277 285 285 280 281 292 304 314 320 325 330 334 335 335 337 340 341 342 343 343 344 345 344 344 345 345 345 345 345 345 342 339 338 339 339 340 342 346 349 351
221 225 228 231 234 236 237 237 239 241 243 244 247 249 251 252 254 256 260 265 270 275 280 282 285 285 271 254 253 261 269 274 270 263 261 260 260 260 260 262 264 262 257 259 270 277 277 272 273 282 294 307 316 320 326 332 333 334 336 339 341 341 343 345 345 345 345 344 344 344 345 346 345 345 343 340 337 337 337 339 342 344 346 348 351
223 226 228 232 235 237 239 241 243 244 245 246 248 250 252 253 256 260 264 268 271 273 275 278 280 274 256 244 248 258 265 270 270 266 261 259 260 258 258 260 258 254 255 265 272 270 264 264 270 281 295 308 315 320 326 330 331 333 336 339 340 341 342 344 345 345 344 343 344 344 345 345 344 344 343 340 339 338 339 343 346 346 345 348 351
226 228 231 234 237 240 242 244 246 247 247 248 250 251 252 253 256 261 264 267 272 274 274 278 277 263 246 241 244 250 259 266 267 264 260 258 258 256 257 257 254 253 261 269 267 260 257 260 267 279 294 305 312 319 324 326 329 332 334 337 339 340 341 343 344 344 343 344 345 344 343 343 344 345 345 345 345 344 345 347 347 345 346 349 351
227 231 234 237 240 242 244 246 247 248 248 250 252 253 253 254 256 258 261 264 269 271 271 276 276 261 246 242 243 247 254 258 259 259 258 257 256 257 257 254 252 257 264 264 258 253 254 257 264 276 290 302 310 317 322 324 327 330 333 336 337 338 341 342 343 344 345 344 342 342 344 346 349 351 352 352 352 350 350 349 344 344 348 351 352
227 232 236 239 241 244 246 247 247 247 249 250 252 253 253 256 256 254 256 262 265 263 261 263 265 259 251 244 243 248 254 256 256 256 256 256 256 256 254 252 254 260 260 254 249 247 249 252 259 271 285 298 307 314 319 321 324 329 333 334 335 339 341 341 343 345 344 341 342 347 352 354 355 355 356 356 355 355 354 348 344 346 349 351 353
229 233 236 239 242 244 246 247 247 247 248 249 251 253 255 258 258 255 255 260 262 258 256 256 254 254 253 245 240 244 252 257 256 254 254 254 254 253 252 251 254 257 254 248 244 243 243 246 253 265 280 294 304 311 315 318 323 328 331 332 336 339 340 343 345 343 340 343 350 354 356 357 357 358 358 358 358 358 355 351 350 351 350 351 355
229 233 236 239 243 244 245 245 245 244 246 247 248 250 251 253 257 256 257 261 261 256 256 259 259 256 253 245 238 239 247 253 254 252 251 250 250 251 252 255 258 257 251 245 242 240 241 243 248 260 275 289 300 306 311 318 324 328 330 334 337 338 341 344 343 339 342 350 355 356 357 358 359 359 359 359 358 357 357 357 358 355 352 353 357
227 232 236 238 241 243 244 244 243 242 243 243 242 243 246 252 257 259 259 263 264 257 254 258 261 259 253 245 238 236 241 249 251 249 247 247 248 251 255 259 259 256 250 246 242 240 241 243 247 260 273 286 295 303 311 319 325 328 332 334 336 338 343 342 339 341 349 354 355 357 358 359 360 360 359 357 356 357 360 2 2 358 355 357 0
227 231 236 238 241 245 246 245 240 236 235 238 240 244 249 254 256 257 257 260 263 260 259 261 263 261 257 248 243 243 246 248 247 246 245 245 246 251 256 258 254 250 249 248 245 242 243 244 249 259 271 283 293 301 311 320 326 329 332 333 336 340 341 338 340 347 351 353 356 358 359 360 0 360 358 356 358 1 3 2 0 358 358 0 4
228 232 237 242 247 251 251 247 240 234 233 237 242 245 248 251 254 254 254 254 257 262 265 264 262 263 262 254 247 247 251 249 245 244 244 244 246 250 254 255 252 247 245 245 246 245 244 244 249 258 269 281 291 301 312 321 326 329 332 335 338 339 338 338 344 349 350 352 357 359 359 0 1 359 358 359 2 3 2 360 360 0 1 4 7
233 237 242 247 251 252 249 245 241 237 233 235 239 241 244 250 257 258 254 252 260 271 273 266 260 262 263 256 247 246 251 252 247 243 242 243 247 251 251 250 248 245 243 245 247 245 241 242 248 258 268 280 291 300 310 320 326 330 333 334 334 336 339 343 346 347 349 354 358 358 358 0 1 0 0 2 3 1 360 0 1 2 4 8 12
236 240 243 247 248 247 246 244 241 237 232 230 232 236 243 250 254 254 253 258 268 275 273 263 257 258 259 254 248 247 251 252 248 243 242 244 247 250 249 245 244 243 244 245 243 239 237 239 247 257 268 279 289 297 309 321 326 327 328 329 334 340 343 344 344 345 349 355 357 357 358 359 1 2 3 4 3 1 0 2 2 3 5 9 13
238 241 244 245 244 244 245 246 242 237 233 230 232 238 245 250 251 251 256 262 266 266 265 261 256 253 253 250 248 249 252 254 250 244 243 246 248 248 245 242 242 242 241 241 239 236 236 239 245 255 265 275 285 294 307 317 319 322 327 333 340 343 342 341 342 345 351 355 355 355 357 359 0 3 5 4 1 0 3 4 3 5 7 8 10
240 242 244 244 245 245 246 247 244 239 236 235 237 242 246 250 252 254 256 257 256 256 258 256 250 247 247 246 248 251 253 254 250 244 243 247 249 247 244 242 242 242 240 241 240 237 236 239 246 254 262 271 281 292 301 309 316 326 335 339 340 340 340 341 342 345 350 353 353 353 356 359 360 2 5 4 0 0 3 5 6 7 7 7 8
242 244 245 246 248 250 251 250 246 242 239 238 240 243 245 247 250 252 253 255 256 254 250 245 241 242 244 245 248 251 251 251 247 243 245 248 249 247 245 244 245 246 244 243 241 238 238 241 246 253 261 269 278 289 300 312 323 331 334 335 336 337 340 339 340 345 349 350 351 353 356 357 358 2 4 3 1 3 4 5 8 10 8 7 8
246 249 251 253 257 259 258 256 252 246 242 241 243 244 244 245 247 248 251 254 253 247 243 241 241 243 243 246 249 248 246 247 244 241 244 247 248 248 247 246 247 247 244 242 240 238 238 241 247 254 261 269 278 288 299 311 320 325 328 330 333 335 337 336 338 344 347 347 350 354 355 356 358 1 1 0 3 6 5 5 10 11 9 9 8
245 247 251 259 267 268 264 261 257 250 244 244 246 247 247 248 249 251 255 256 249 242 242 243 243 243 245 250 254 252 249 250 246 241 243 246 247 248 247 246 245 244 241 240 239 238 239 242 247 254 261 269 278 286 295 303 312 318 324 328 330 333 334 334 338 343 345 347 350 352 353 356 359 360 359 360 4 7 5 6 11 13 13 12 9
246 246 249 257 262 263 261 259 257 254 250 249 250 250 251 252 253 257 262 259 249 244 246 246 245 246 249 254 259 260 257 256 250 243 244 246 246 246 245 244 243 242 241 239 238 238 240 244 248 254 261 268 277 283 290 298 306 313 321 326 328 331 332 333 337 341 344 347 349 350 352 356 358 358 360 1 3 5 7 8 12 15 16 16 12
249 251 255 259 260 259 259 258 256 254 252 250 251 252 253 254 255 260 262 255 244 242 248 251 252 254 253 256 261 263 258 254 250 247 247 245 244 244 244 243 243 242 241 239 238 238 241 245 248 254 261 267 274 281 288 295 302 311 318 323 326 329 330 332 335 339 343 346 347 348 351 354 355 358 0 1 2 6 9 11 12 14 16 17 16
248 252 257 259 258 257 258 258 256 253 251 250 251 253 253 254 257 258 255 248 243 245 250 253 255 256 255 258 263 263 256 251 250 250 249 246 245 245 243 242 242 243 242 240 239 239 243 246 249 254 260 266 274 281 288 294 300 307 313 317 321 325 328 330 333 336 340 343 344 346 349 352 354 357 359 1 3 7 11 13 13 13 14 15 17
247 252 255 255 256 256 256 255 253 250 249 251 253 253 253 256 259 256 247 244 246 250 251 251 253 254 255 259 263 262 255 252 253 252 250 248 246 244 242 242 244 244 242 240 239 239 243 247 249 253 259 265 272 280 285 291 296 300 306 312 318 323 326 328 330 333 337 340 341 343 347 350 353 356 359 0 3 6 8 11 13 12 12 13 17
247 252 254 255 257 258 257 255 251 249 249 251 253 252 252 255 258 256 251 248 250 253 255 254 252 251 252 255 259 258 253 251 252 250 248 246 245 242 240 242 244 244 241 239 238 239 242 247 250 253 258 263 270 277 283 288 293 297 302 309 315 320 323 325 327 330 333 335 337 340 345 349 353 356 357 359 1 0 1 8 13 11 10 12 17
248 252 255 257 260 261 259 254 250 249 248 247 246 248 249 251 254 257 258 256 255 255 258 257 254 253 255 258 260 259 254 250 249 249 247 246 244 241 241 244 246 245 241 239 238 240 243 247 250 253 258 263 269 276 281 286 291 295 299 304 310 315 318 321 324 326 328 329 334 340 346 349 351 352 354 356 358 356 356 3 7 6 7 12 16
249 253 257 260 261 260 256 249 246 247 245 242 243 247 249 251 254 257 258 259 258 256 258 260 259 261 263 263 263 260 255 250 248 247 247 247 245 242 242 244 246 245 241 238 238 241 244 247 251 254 257 262 268 273 278 283 288 292 296 301 307 312 315 318 320 322 325 329 335 341 345 346 347 348 350 353 355 354 355 357 356 356 5 12 14
254 256 259 259 257 255 250 244 242 243 242 240 243 246 249 252 256 256 256 259 262 263 263 263 262 263 265 265 264 261 257 254 251 248 246 246 245 242 240 241 242 241 238 236 238 242 244 247 251 255 257 262 268 273 277 282 286 290 293 298 303 308 312 314 317 321 324 328 333 337 340 342 344 346 348 350 353 352 349 346 347 353 2 8 8
258 259 259 258 255 252 248 243 240 239 240 241 243 246 250 255 260 260 259 263 267 267 264 263 265 267 269 269 268 266 263 260 256 250 245 243 243 241 239 240 241 240 237 236 238 241 243 247 252 256 259 264 269 273 277 281 284 286 290 295 299 304 308 312 315 318 321 325 329 333 337 340 342 343 345 347 349 348 343 340 344 352 358 359 359
258 259 259 258 256 254 251 247 243 242 244 246 248 252 256 259 261 261 263 266 268 265 262 264 270 272 272 272 270 267 262 258 254 249 244 242 243 243 242 241 242 241 238 237 238 241 244 249 253 257 260 265 271 275 277 280 283 285 289 292 296 300 305 308 311 315 318 323 327 329 331 336 339 340 341 342 344 346 344 341 342 346 348 350 353
258 259 260 260 259 260 260 256 250 247 248 247 248 253 257 260 261 261 262 263 264 263 263 268 273 275 275 275 270 262 258 256 253 250 247 244 244 244 244 244 243 241 239 238 239 241 246 251 253 256 260 266 272 276 278 280 282 285 287 290 293 296 301 305 309 314 318 321 324 325 328 332 336 336 337 338 341 344 342 337 333 333 336 342 348
259 259 260 260 261 262 262 257 252 250 250 250 251 254 257 259 259 258 257 257 259 264 270 275 277 278 280 280 272 259 254 253 252 249 247 245 244 245 245 245 245 243 241 241 241 242 246 250 251 254 260 267 273 277 279 280 281 282 284 287 290 293 298 303 307 312 315 318 321 323 326 328 331 332 334 336 338 339 338 334 330 328 330 337 343
262 260 261 263 264 264 262 257 252 250 249 249 250 253 255 255 252 248 248 251 257 266 272 275 277 278 280 281 274 263 256 254 251 248 246 245 244 244 244 244 245 245 243 242 241 242 245 249 250 252 259 268 273 277 278 280 282 282 283 285 288 291 296 301 305 309 312 314 317 320 322 324 327 329 332 333 333 332 332 332 330 327 327 330 333
266 264 265 268 269 266 262 258 255 253 251 250 249 250 250 247 243 241 243 247 252 260 266 270 273 276 278 279 276 267 260 258 255 251 247 245 244 245 245 245 245 244 242 241 241 242 246 251 251 252 257 266 272 276 278 278 280 281 282 284 287 291 295 299 303 306 307 310 313 317 320 322 324 326 327 328 327 325 324 324 323 320 319 319 321
267 268 270 271 268 263 261 261 260 256 251 247 245 243 241 239 240 243 247 248 249 254 259 264 270 276 278 279 276 268 260 259 257 254 251 249 247 247 248 247 243 241 241 242 244 247 253 257 256 254 259 267 272 274 275 276 277 279 280 282 286 290 294 299 302 303 305 308 312 316 317 319 321 323 324 323 322 320 320 320 318 315 311 309 309
268 271 273 270 264 260 261 265 266 259 249 242 240 240 240 241 244 247 247 247 249 252 254 259 267 274 277 277 275 267 260 259 258 255 252 250 248 247 247 246 242 241 243 246 249 254 259 262 259 257 262 270 273 273 273 274 275 277 280 283 286 290 294 298 301 302 304 307 310 311 313 316 318 320 320 319 318 317 317 317 318 317 314 310 308
268 270 270 267 263 261 263 268 269 265 258 252 249 249 249 251 251 250 249 251 254 257 262 267 273 275 275 275 276 271 264 260 257 253 250 250 248 246 245 244 242 243 246 249 252 256 263 266 263 261 264 270 274 275 275 274 275 277 280 283 286 290 293 295 297 298 300 303 306 307 310 313 316 316 316 315 314 313 313 313 315 315 314 313 312
265 267 267 267 264 261 261 266 271 271 266 264 263 262 261 262 260 257 255 258 263 268 272 275 277 276 275 276 278 277 271 263 257 252 250 250 249 246 245 245 245 246 249 253 256 262 268 269 264 262 267 272 275 275 275 275 275 278 280 283 286 289 291 292 292 294 296 299 302 305 308 311 313 314 313 311 310 310 310 311 312 313 312 312 311
263 263 261 261 260 257 254 256 266 272 270 268 269 269 268 268 267 263 262 266 273 276 276 277 277 276 276 276 277 278 277 271 261 253 252 253 252 248 246 248 251 253 256 259 263 267 271 269 264 263 268 274 276 276 276 276 277 278 281 284 286 288 289 289 289 291 295 298 301 303 307 309 310 310 310 309 309 310 311 312 312 312 311 311 311
261 260 259 259 261 260 256 256 263 271 271 269 270 270 269 269 269 268 267 271 275 276 276 277 277 276 276 276 275 276 277 275 267 258 255 254 251 247 247 250 254 257 259 262 264 266 267 265 262 265 270 274 275 276 277 277 278 280 282 284 286 286 286 287 289 291 294 297 300 303 305 306 307 307 308 308 308 309 309 311 312 312 311 311 311
Height
3122 3124 3125 3126 3127 3129 3130 3131 3132 3134 3135 3137 3138 3139 3140 3140 3141 3142 3142 3143 3144 3145 3145 3145 3145 3145 3145 3145 3144 3144 3144 3144 3143 3143 3142 3142 3142 3142 3141 3141 3140 3140 3139 3138 3138 3137 3137 3136 3136 3135 3134 3133 3132 3131 3130 3129 3128 3127 3126 3125 3124 3122 3121 3119 3118 3116 3114 3111 3108 3105 3102 3099 3096 3093 3090 3087 3083 3080 3076 3073 3069 3065 3060 3056 3051
3119 3121 3122 3123 3125 3127 3128 3129 3131 3132 3133 3135 3136 3137 3138 3139 3139 3140 3141 3141 3142 3143 3143 3143 3143 3143 3142 3142 3142 3142 3142 3141 3141 3141 3141 3141 3140 3140 3139 3139 3138 3138 3137 3136 3136 3135 3135 3135 3134 3133 3132 3131 3130 3129 3128 3127 3126 3125 3124 3123 3121 3120 3119 3117 3115 3113 3111 3108 3105 3102 3099 3096 3093 3090 3086 3083 3079 3075 3073 3070 3066 3061 3057 3053 3048
3117 3118 3120 3121 3123 3124 3126 3127 3129 3130 3131 3133 3134 3135 3136 3137 3137 3138 3139 3139 3140 3140 3140 3140 3140 3140 3140 3140 3140 3140 3139 3139 3139 3139 3139 3138 3138 3138 3137 3137 3136 3136 3135 3135 3134 3134 3133 3133 3132 3131 3130 3129 3128 3127 3126 3125 3124 3123 3122 3121 3119 3118 3116 3114 3112 3110 3108 3105 3102 3099 3096 3093 3090 3087 3083 3080 3076 3072 3069 3067 3063 3058 3054 3050 3044
3114 3115 3117 3119 3121 3122 3124 3125 3126 3128 3129 3131 3132 3133 3134 3135 3135 3136 3136 3137 3137 3138 3138 3138 3138 3138 3138 3138 3138 3138 3137 3137 3137 3137 3136 3136 3136 3136 3135 3135 3134 3134 3133 3133 3133 3132 3132 3131 3130 3129 3129 3128 3127 3126 3125 3124 3123 3121 3120 3119 3118 3116 3114 3113 3110 3108 3105 3102 3100 3097 3093 3090 3087 3084 3081 3077 3074 3070 3066 3063 3060 3055 3051 3046 3040
3111 3113 3115 3116 3118 3120 3121 3123 3124 3125 3127 3128 3130 3131 3131 3132 3133 3133 3134 3135 3135 3135 3135 3136 3136 3136 3136 3136 3136 3136 3135 3135 3135 3134 3134 3134 3134 3134 3133 3133 3133 3132 3132 3132 3131 3131 3130 3129 3128 3128 3127 3126 3125 3124 3123 3122 3121 3120 3119 3117 3116 3115 3113 3111 3108 3106 3103 3100 3098 3095 3091 3088 3085 3082 3078 3074 3071 3067 3063 3059 3056 3052 3047 3043 3037
3109 3110 3112 3114 3116 3118 3119 3120 3122 3123 3125 3126 3127 3128 3129 3130 3130 3131 3131 3132 3133 3133 3133 3134 3134 3134 3134 3134 3134 3133 3133 3133 3132 3132 3132 3132 3132 3132 3131 3131 3131 3131 3130 3130 3129 3129 3128 3127 3127 3126 3125 3125 3124 3123 3122 3121 3120 3119 3118 3116 3115 3113 3112 3110 3107 3104 3101 3098 3096 3093 3090 3086 3082 3079 3076 3072 3068 3063 3058 3055 3053 3049 3043 3039 3033
3106 3108 3110 3112 3114 3115 3117 3118 3120 3121 3122 3124 3125 3126 3127 3127 3128 3128 3129 3130 3130 3131 3131 3131 3131 3131 3131 3131 3131 3131 3130 3130 3130 3130 3130 3130 3130 3130 3130 3129 3129 3129 3128 3128 3128 3127 3126 3126 3125 3124 3124 3123 3123 3122 3121 3120 3119 3118 3116 3115 3114 3112 3110 3108 3106 3103 3100 3097 3094 3091 3088 3085 3080 3076 3073 3069 3065 3061 3055 3050 3047 3043 3039 3034 3030
3104 3106 3108 3110 3112 3113 3114 3116 3117 3119 3120 3122 3123 3123 3124 3124 3125 3126 3127 3128 3128 3129 3128 3128 3129 3129 3128 3128 3128 3128 3128 3128 3128 3128 3128 3128 3128 3128 3128 3128 3128 3127 3127 3126 3126 3125 3125 3124 3124 3123 3123 3122 3121 3121 3120 3119 3118 3117 3115 3114 3112 3111 3109 3106 3104 3101 3098 3095 3092 3089 3086 3083 3079 3074 3070 3066 3062 3058 3053 3047 3042 3038 3034 3031 3028
3101 3103 3105 3107 3109 3111 3112 3114 3115 3116 3118 3119 3120 3121 3121 3122 3123 3124 3125 3125 3126 3126 3126 3126 3127 3126 3125 3124 3124 3124 3124 3125 3126 3126 3126 3126 3126 3126 3126 3126 3126 3126 3125 3125 3124 3124 3123 3123 3122 3122 3122 3121 3120 3120 3119 3118 3117 3115 3114 3113 3111 3109 3107 3104 3102 3099 3097 3094 3091 3088 3085 3081 3076 3071 3066 3063 3058 3054 3050 3045 3040 3036 3031 3027 3025
3099 3101 3103 3105 3107 3108 3110 3111 3112 3114 3115 3116 3117 3118 3119 3121 3122 3123 3123 3123 3124 3124 3123 3124 3124 3123 3122 3123 3122 3122 3121 3121 3122 3123 3124 3124 3124 3124 3124 3124 3124 3124 3123 3123 3122 3122 3122 3121 3121 3121 3120 3120 3119 3118 3117 3116 3115 3114 3113 3111 3109 3107 3105 3103 3101 3098 3095 3093 3089 3086 3082 3078 3073 3068 3064 3060 3056 3052 3047 3042 3037 3033 3028 3024 3020
3097 3099 3101 3102 3104 3106 3107 3109 3110 3111 3112 3113 3115 3116 3118 3119 3120 3121 3121 3122 3122 3121 3121 3121 3121 3121 3122 3123 3123 3122 3121 3120 3120 3121 3122 3122 3122 3122 3122 3122 3122 3122 3121 3121 3120 3120 3120 3120 3120 3119 3119 3118 3118 3117 3116 3115 3114 3113 3111 3109 3108 3106 3104 3101 3099 3096 3093 3090 3088 3084 3080 3075 3071 3067 3062 3057 3054 3049 3045 3040 3035 3030 3026 3021 3016
3095 3097 3098 3100 3102 3103 3105 3107 3108 3109 3109 3111 3112 3114 3115 3117 3118 3119 3119 3120 3120 3120 3119 3119 3118 3119 3120 3120 3120 3121 3120 3119 3118 3119 3120 3120 3120 3121 3120 3120 3120 3120 3120 3119 3119 3118 3118 3118 3118 3118 3117 3117 3116 3115 3115 3113 3112 3111 3109 3108 3106 3104 3102 3099 3096 3093 3091 3088 3085 3082 3077 3073 3069 3065 3060 3055 3051 3047 3043 3039 3034 3029 3025 3020 3014
3092 3094 3096 3098 3099 3101 3103 3104 3105 3106 3107 3109 3110 3111 3112 3114 3116 3116 3116 3117 3118 3118 3118 3117 3117 3117 3117 3117 3117 3118 3118 3117 3117 3117 3118 3118 3118 3119 3119 3119 3118 3118 3118 3117 3117 3117 3117 3117 3116 3116 3116 3116 3115 3114 3113 3112 3111 3109 3108 3106 3105 3103 3100 3098 3095 3092 3089 3086 3083 3080 3076 3072 3068 3063 3059 3053 3048 3044 3041 3037 3033 3029 3024 3019 3014
3089 3091 3093 3096 3098 3099 3100 3101 3102 3103 3105 3107 3107 3108 3110 3111 3113 3113 3113 3114 3115 3115 3115 3115 3115 3114 3114 3114 3115 3116 3116 3115 3115 3115 3116 3116 3116 3117 3117 3117 3116 3116 3116 3116 3116 3116 3115 3115 3115 3115 3115 3114 3114 3113 3112 3111 3109 3108 3106 3104 3102 3100 3098 3096 3093 3090 3087 3084 3081 3078 3074 3070 3066 3062 3058 3053 3048 3043 3039 3035 3031 3026 3021 3018 3013
3087 3089 3092 3094 3095 3097 3098 3099 3100 3101 3103 3104 3105 3106 3107 3108 3109 3110 3111 3111 3111 3111 3111 3112 3112 3112 3111 3112 3113 3114 3114 3113 3113 3113 3114 3114 3115 3115 3115 3115 3114 3114 3114 3114 3114 3114 3114 3114 3114 3114 3114 3113 3113 3112 3111 3110 3108 3107 3105 3103 3101 3099 3097 3094 3092 3089 3086 3084 3080 3077 3073 3069 3065 3061 3057 3053 3048 3044 3039 3035 3029 3024 3019 3016 3012
3085 3088 3090 3091 3093 3095 3095 3096 3097 3099 3100 3101 3102 3103 3104 3105 3106 3107 3108 3108 3108 3108 3108 3109 3109 3109 3109 3110 3110 3111 3111 3111 3111 3111 3112 3113 3113 3113 3113 3113 3112 3112 3112 3113 3113 3113 3113 3113 3113 3112 3112 3112 3112 3111 3110 3109 3108 3106 3104 3103 3101 3098 3096 3094 3092 3089 3087 3084 3081 3077 3073 3069 3066 3062 3058 3053 3048 3043 3038 3033 3027 3023 3019 3014 3010
3084 3086 3088 3089 3091 3092 3093 3094 3095 3096 3097 3098 3098 3100 3101 3102 3103 3104 3104 3105 3105 3105 3105 3106 3106 3106 3106 3107 3107 3108 3109 3109 3109 3109 3110 3110 3111 3111 3111 3111 3111 3111 3111 3111 3111 3111 3111 3111 3111 3111 3111 3111 3111 3110 3109 3108 3107 3105 3104 3102 3100 3098 3096 3094 3092 3089 3086 3083 3080 3077 3074 3070 3066 3062 3057 3052 3047 3041 3035 3030 3026 3022 3018 3012 3008
3082 3084 3085 3087 3088 3089 3090 3091 3092 3093 3094 3094 3095 3097 3098 3099 3100 3101 3101 3101 3102 3102 3102 3103 3103 3103 3104 3104 3105 3105 3106 3106 3106 3107 3108 3108 3109 3109 3109 3109 3109 3109 3109 3109 3109 3109 3110 3110 3110 3110 3110 3110 3110 3109 3108 3107 3106 3104 3103 3101 3099 3097 3095 3093 3091 3089 3086 3083 3080 3077 3073 3068 3063 3059 3054 3049 3045 3040 3034 3029 3026 3022 3017 3012 3007
3080 3081 3083 3085 3086 3087 3088 3088 3089 3090 3090 3091 3092 3093 3094 3095 3096 3097 3097 3098 3098 3098 3099 3099 3099 3100 3101 3101 3102 3103 3104 3104 3104 3104 3105 3106 3107 3107 3107 3107 3107 3107 3107 3107 3107 3108 3108 3108 3109 3109 3109 3109 3109 3108 3107 3106 3105 3103 3102 3100 3099 3096 3094 3092 3089 3087 3085 3082 3079 3074 3068 3064 3059 3055 3051 3047 3043 3039 3035 3031 3027 3021 3016 3012 3007
3078 3079 3081 3082 3083 3084 3085 3085 3086 3087 3087 3088 3089 3090 3091 3091 3092 3093 3094 3095 3095 3095 3095 3095 3096 3097 3097 3098 3099 3100 3101 3101 3101 3102 3103 3104 3104 3105 3105 3105 3105 3106 3106 3106 3106 3106 3106 3107 3107 3108 3108 3108 3107 3107 3106 3105 3104 3102 3101 3099 3097 3095 3093 3090 3088 3086 3083 3080 3075 3070 3065 3061 3057 3054 3050 3046 3042 3039 3036 3033 3027 3022 3017 3012 3007
3076 3077 3078 3079 3080 3081 3082 3083 3083 3084 3084 3086 3087 3087 3088 3089 3089 3090 3091 3091 3091 3092 3093 3094 3094 3094 3095 3096 3096 3097 3098 3098 3099 3100 3100 3101 3102 3102 3103 3103 3104 3104 3104 3104 3104 3104 3105 3106 3106 3106 3107 3107 3106 3106 3105 3104 3102 3101 3099 3097 3095 3093 3091 3089 3087 3085 3082 3077 3073 3068 3064 3061 3056 3052 3049 3045 3042 3039 3036 3032 3027 3023 3018 3012 3007
3073 3074 3076 3077 3078 3078 3079 3080 3080 3081 3082 3084 3084 3085 3086 3086 3086 3087 3088 3088 3089 3090 3090 3091 3092 3092 3092 3093 3093 3094 3094 3096 3097 3097 3098 3099 3099 3100 3101 3102 3102 3102 3102 3102 3102 3103 3103 3104 3105 3105 3105 3105 3105 3104 3104 3102 3101 3099 3098 3096 3094 3092 3089 3087 3085 3083 3079 3076 3072 3068 3064 3060 3055 3052 3048 3045 3042 3039 3034 3030 3027 3023 3019 3014 3008
3070 3072 3073 3074 3075 3075 3076 3077 3078 3079 3080 3081 3081 3082 3083 3083 3084 3084 3085 3085 3087 3087 3088 3089 3090 3090 3090 3090 3091 3092 3092 3093 3094 3095 3096 3096 3097 3098 3099 3100 3100 3100 3101 3101 3101 3101 3102 3103 3103 3104 3104 3104 3103 3103 3102 3101 3099 3098 3096 3094 3092 3090 3088 3086 3084 3081 3078 3074 3071 3067 3063 3059 3054 3051 3047 3044 3040 3036 3032 3029 3026 3023 3020 3015 3010
3068 3069 3070 3071 3072 3072 3073 3074 3075 3076 3077 3077 3078 3079 3080 3080 3081 3081 3082 3084 3085 3085 3085 3086 3087 3087 3088 3089 3090 3090 3091 3091 3092 3093 3093 3094 3095 3096 3097 3097 3098 3098 3098 3099 3099 3100 3100 3101 3102 3102 3102 3102 3102 3101 3100 3099 3097 3096 3094 3092 3090 3089 3087 3085 3082 3079 3077 3073 3069 3066 3062 3058 3054 3050 3047 3042 3038 3034 3032 3029 3026 3023 3020 3016 3011
3066 3067 3068 3069 3069 3070 3070 3071 3072 3072 3073 3074 3075 3076 3077 3078 3079 3079 3080 3082 3082 3083 3083 3084 3084 3085 3086 3086 3087 3088 3089 3090 3090 3090 3091 3092 3093 3094 3094 3095 3095 3096 3096 3097 3097 3098 3099 3100 3100 3100 3100 3100 3100 3099 3098 3097 3095 3094 3092 3091 3089 3088 3085 3083 3081 3078 3075 3072 3068 3065 3062 3058 3054 3050 3046 3041 3038 3035 3032 3029 3025 3022 3019 3015 3011
3064 3065 3066 3066 3067 3067 3068 3068 3069 3070 3071 3072 3072 3074 3075 3076 3076 3077 3078 3079 3080 3080 3081 3082 3082 3083 3083 3084 3085 3086 3086 3087 3088 3088 3089 3090 3091 3092 3092 3093 3093 3094 3094 3095 3096 3096 3097 3098 3098 3099 3098 3098 3098 3097 3096 3095 3094 3092 3091 3090 3088 3086 3083 3082 3080 3077 3074 3071 3067 3065 3061 3057 3054 3050 3045 3041 3038 3035 3031 3027 3024 3020 3016 3013 3010
3062 3062 3063 3064 3064 3065 3065 3065 3066 3067 3068 3069 3070 3071 3073 3074 3074 3075 3076 3077 3078 3079 3079 3080 3080 3081 3081 3082 3083 3083 3084 3085 3085 3086 3087 3088 3089 3089 3090 3090 3091 3091 3092 3093 3093 3094 3095 3096 3096 3096 3096 3096 3096 3095 3094 3093 3092 3091 3089 3087 3085 3084 3082 3081 3079 3076 3072 3069 3067 3064 3061 3057 3053 3049 3045 3041 3038 3035 3031 3027 3023 3018 3014 3011 3008
3059 3060 3061 3061 3062 3062 3062 3063 3063 3064 3065 3066 3067 3069 3071 3072 3072 3073 3074 3074 3076 3076 3077 3077 3078 3079 3079 3079 3080 3081 3081 3082 3083 3084 3085 3086 3086 3087 3087 3088 3088 3089 3090 3091 3091 3092 3093 3094 3094 3094 3094 3094 3094 3094 3093 3092 3090 3088 3087 3086 3084 3083 3081 3079 3077 3074 3071 3068 3066 3063 3060 3056 3052 3048 3045 3042 3039 3035 3030 3026 3022 3018 3014 3011 3007
3056 3057 3058 3058 3059 3059 3059 3060 3061 3061 3062 3064 3065 3067 3068 3069 3070 3070 3071 3072 3073 3074 3074 3075 3076 3076 3076 3077 3077 3078 3079 3080 3081 3082 3083 3083 3084 3084 3085 3086 3086 3087 3088 3089 3090 3090 3091 3092 3092 3092 3092 3092 3092 3092 3090 3089 3088 3087 3086 3085 3084 3082 3080 3079 3076 3073 3070 3068 3065 3062 3059 3055 3052 3048 3045 3042 3039 3034 3030 3027 3023 3018 3014 3011 3008
3054 3055 3055 3056 3056 3056 3057 3057 3058 3059 3060 3061 3062 3064 3065 3066 3066 3067 3068 3069 3070 3071 3071 3072 3073 3073 3073 3073 3074 3075 3076 3077 3079 3080 3080 3080 3081 3082 3083 3084 3084 3085 3086 3086 3087 3088 3089 3089 3090 3090 3090 3090 3090 3089 3088 3087 3087 3086 3085 3084 3082 3081 3079 3078 3075 3073 3070 3067 3064 3061 3059 3055 3051 3047 3044 3042 3038 3034 3031 3028 3024 3019 3015 3011 3008
3051 3052 3053 3053 3054 3054 3054 3055 3056 3056 3057 3058 3059 3060 3062 3062 3063 3064 3065 3066 3067 3068 3068 3069 3070 3070 3071 3070 3071 3073 3074 3074 3076 3077 3077 3077 3078 3079 3080 3081 3082 3082 3083 3084 3085 3086 3087 3087 3088 3088 3088 3088 3088 3087 3087 3086 3085 3084 3083 3082 3081 3079 3078 3076 3074 3071 3069 3066 3063 3061 3058 3054 3051 3047 3044 3041 3037 3034 3032 3028 3024 3021 3017 3012 3009
3048 3049 3049 3050 3050 3051 3051 3052 3053 3054 3054 3055 3056 3058 3059 3060 3061 3062 3063 3064 3065 3065 3066 3067 3067 3068 3068 3068 3068 3070 3071 3071 3073 3074 3074 3074 3075 3076 3077 3078 3079 3080 3080 3081 3083 3084 3084 3085 3085 3086 3086 3086 3086 3085 3085 3084 3083 3082 3081 3080 3079 3077 3076 3074 3072 3070 3067 3065 3062 3060 3057 3054 3051 3047 3044 3040 3037 3035 3032 3028 3025 3022 3018 3014 3011
3045 3045 3046 3046 3047 3047 3048 3049 3050 3051 3051 3052 3054 3056 3057 3057 3058 3059 3060 3060 3061 3062 3063 3064 3065 3065 3065 3065 3065 3067 3068 3068 3069 3070 3071 3072 3072 3073 3074 3075 3076 3077 3078 3079 3080 3081 3082 3082 3083 3083 3084 3084 3084 3083 3083 3082 3081 3080 3079 3078 3077 3076 3074 3073 3071 3068 3066 3064 3061 3059 3056 3053 3050 3047 3044 3041 3038 3035 3032 3029 3026 3023 3019 3016 3012
3042 3042 3043 3043 3044 3044 3045 3046 3047 3048 3049 3050 3051 3053 3054 3054 3055 3056 3056 3057 3058 3059 3060 3061 3062 3062 3062 3062 3063 3064 3065 3065 3066 3067 3068 3068 3069 3070 3071 3072 3073 3074 3075 3076 3077 3078 3079 3080 3081 3081 3081 3081 3081 3081 3080 3080 3079 3079 3078 3077 3076 3074 3073 3071 3069 3067 3065 3063 3061 3058 3056 3053 3050 3047 3044 3041 3038 3035 3032 3029 3027 3023 3020 3017 3012
3039 3039 3040 3040 3041 3042 3043 3043 3044 3045 3046 3047 3049 3050 3051 3051 3052 3052 3053 3054 3055 3056 3057 3058 3059 3060 3060 3059 3059 3061 3062 3062 3062 3063 3064 3065 3066 3067 3068 3069 3070 3071 3072 3073 3074 3075 3076 3077 3078 3079 3079 3079 3079 3079 3078 3078 3077 3077 3076 3075 3074 3072 3071 3069 3068 3066 3064 3062 3060 3058 3055 3053 3050 3047 3044 3040 3037 3035 3033 3031 3028 3025 3022 3018 3013
3036 3036 3037 3037 3038 3039 3040 3041 3041 3042 3043 3045 3046 3047 3048 3048 3049 3049 3050 3052 3052 3053 3054 3055 3056 3056 3056 3056 3056 3057 3058 3059 3059 3060 3061 3062 3063 3064 3065 3066 3068 3069 3069 3070 3072 3073 3074 3075 3076 3076 3077 3077 3076 3076 3076 3075 3075 3074 3074 3073 3072 3071 3069 3068 3066 3064 3063 3061 3059 3057 3054 3051 3048 3045 3043 3041 3038 3036 3034 3031 3028 3026 3023 3019 3015
3032 3033 3034 3034 3035 3036 3037 3038 3038 3039 3040 3042 3043 3044 3045 3046 3046 3047 3048 3048 3049 3050 3051 3051 3052 3052 3053 3053 3053 3054 3054 3055 3055 3056 3058 3059 3060 3061 3062 3064 3065 3066 3067 3068 3069 3070 3071 3072 3073 3073 3074 3074 3074 3074 3074 3073 3073 3072 3071 3071 3070 3069 3067 3066 3064 3063 3061 3060 3057 3055 3052 3049 3047 3045 3043 3040 3038 3036 3033 3030 3028 3027 3024 3020 3016
3030 3030 3031 3031 3032 3033 3034 3035 3035 3036 3037 3039 3040 3041 3042 3043 3044 3044 3045 3045 3046 3047 3047 3047 3048 3049 3050 3050 3050 3050 3050 3051 3052 3052 3054 3055 3057 3059 3060 3061 3062 3063 3064 3065 3066 3067 3068 3070 3070 3071 3071 3071 3071 3071 3071 3071 3070 3070 3069 3068 3067 3066 3065 3064 3062 3061 3059 3057 3055 3053 3051 3049 3047 3045 3042 3040 3037 3035 3032 3030 3029 3027 3023 3020 3017
3027 3027 3028 3028 3029 3030 3030 3031 3032 3033 3034 3036 3037 3038 3039 3040 3041 3042 3042 3042 3043 3044 3044 3044 3044 3045 3046 3047 3047 3047 3047 3047 3048 3049 3051 3053 3055 3056 3057 3057 3058 3059 3060 3061 3063 3064 3065 3067 3067 3068 3068 3068 3069 3069 3068 3068 3068 3067 3067 3066 3065 3064 3063 3062 3060 3059 3057 3056 3054 3052 3050 3048 3046 3044 3041 3039 3036 3034 3032 3030 3028 3026 3022 3020 3018
3024 3025 3025 3026 3026 3027 3027 3028 3029 3030 3032 3033 3035 3035 3036 3038 3038 3039 3039 3039 3039 3041 3041 3041 3040 3041 3042 3043 3043 3043 3043 3044 3045 3046 3047 3049 3051 3052 3053 3054 3055 3056 3057 3058 3060 3061 3062 3063 3064 3065 3065 3066 3066 3066 3066 3065 3065 3065 3064 3063 3063 3062 3061 3059 3058 3057 3055 3054 3052 3050 3048 3046 3044 3042 3040 3038 3036 3033 3031 3029 3027 3025 3023 3021 3019
3021 3022 3022 3023 3024 3024 3025 3026 3027 3028 3029 3031 3032 3033 3033 3034 3035 3036 3036 3036 3036 3037 3038 3038 3037 3037 3038 3039 3040 3040 3040 3041 3042 3043 3044 3046 3048 3049 3050 3051 3052 3053 3054 3056 3057 3058 3059 3060 3061 3062 3062 3063 3063 3063 3063 3063 3062 3062 3061 3061 3060 3059 3058 3057 3056 3054 3053 3051 3050 3048 3046 3045 3043 3041 3039 3037 3035 3033 3030 3028 3026 3025 3023 3021 3019
3019 3019 3020 3020 3021 3022 3023 3024 3025 3026 3027 3028 3029 3030 3031 3032 3032 3033 3033 3033 3033 3034 3035 3035 3034 3033 3034 3036 3037 3037 3036 3037 3038 3040 3041 3042 3044 3045 3047 3048 3049 3050 3051 3053 3054 3055 3056 3057 3058 3059 3059 3060 3060 3060 3060 3060 3060 3059 3059 3058 3058 3057 3056 3055 3053 3052 3050 3049 3047 3046 3044 3042 3041 3039 3037 3035 3033 3031 3029 3028 3026 3024 3023 3021 3018
3017 3017 3017 3018 3019 3020 3021 3022 3022 3023 3024 3026 3027 3027 3028 3028 3029 3030 3030 3030 3030 3031 3032 3032 3031 3030 3031 3032 3033 3033 3033 3033 3035 3036 3037 3038 3040 3041 3043 3044 3046 3047 3048 3049 3051 3052 3052 3053 3054 3055 3056 3057 3057 3057 3057 3057 3057 3056 3056 3055 3055 3054 3053 3052 3051 3049 3048 3046 3045 3043 3042 3040 3038 3037 3035 3033 3031 3029 3028 3027 3025 3023 3022 3020 3018
3014 3014 3015 3015 3017 3017 3018 3019 3020 3021 3022 3023 3024 3024 3025 3025 3026 3027 3027 3027 3028 3028 3029 3029 3028 3028 3028 3029 3030 3029 3029 3029 3030 3032 3033 3034 3036 3038 3039 3041 3042 3043 3045 3046 3047 3048 3049 3049 3051 3052 3053 3053 3054 3054 3054 3054 3053 3053 3053 3052 3052 3051 3050 3049 3048 3047 3046 3044 3043 3041 3040 3038 3036 3035 3033 3031 3029 3028 3026 3025 3023 3022 3020 3019 3017
3012 3012 3012 3013 3014 3015 3015 3016 3017 3018 3019 3020 3020 3021 3022 3023 3023 3024 3024 3025 3025 3026 3026 3025 3025 3024 3025 3025 3026 3026 3026 3026 3027 3028 3029 3031 3033 3034 3035 3037 3038 3040 3041 3042 3044 3044 3045 3046 3047 3048 3049 3050 3051 3051 3051 3051 3050 3050 3049 3049 3049 3048 3047 3046 3045 3044 3043 3042 3040 3039 3037 3035 3034 3032 3031 3029 3028 3026 3025 3023 3022 3020 3019 3017 3016
3009 3009 3010 3011 3011 3012 3013 3013 3014 3015 3015 3016 3017 3018 3019 3020 3020 3021 3021 3022 3022 3022 3022 3021 3021 3021 3021 3022 3023 3023 3023 3023 3024 3025 3026 3028 3030 3031 3032 3033 3035 3036 3037 3039 3040 3041 3041 3043 3044 3045 3046 3047 3047 3048 3047 3047 3047 3047 3046 3046 3045 3045 3044 3043 3042 3041 3040 3038 3037 3036 3035 3033 3031 3030 3028 3027 3026 3024 3023 3021 3020 3018 3017 3015 3014
3006 3007 3007 3008 3009 3009 3010 3011 3011 3012 3013 3014 3015 3015 3016 3017 3018 3018 3018 3018 3018 3018 3018 3018 3018 3018 3018 3018 3019 3020 3020 3020 3021 3022 3024 3025 3027 3028 3029 3030 3032 3033 3034 3035 3036 3037 3038 3039 3040 3041 3042 3043 3043 3044 3044 3044 3044 3043 3043 3043 3042 3042 3041 3040 3039 3037 3036 3035 3034 3033 3032 3031 3029 3027 3026 3025 3023 3022 3020 3019 3017 3016 3014 3013 3012
3004 3004 3005 3006 3006 3007 3008 3009 3010 3010 3011 3012 3013 3013 3014 3015 3015 3015 3015 3015 3016 3016 3016 3016 3015 3015 3015 3015 3016 3017 3017 3017 3018 3019 3020 3022 3023 3024 3025 3026 3028 3029 3030 3032 3033 3034 3035 3036 3037 3037 3038 3039 3040 3040 3040 3040 3040 3040 3040 3039 3039 3038 3038 3037 3035 3034 3033 3032 3031 3030 3029 3028 3026 3025 3024 3022 3021 3019 3018 3016 3015 3014 3012 3011 3010
3001 3002 3003 3003 3004 3005 3006 3007 3008 3008 3009 3010 3010 3011 3011 3011 3011 3012 3013 3013 3014 3014 3014 3013 3013 3013 3013 3012 3012 3013 3013 3014 3015 3016 3017 3018 3019 3020 3022 3023 3024 3026 3027 3028 3030 3030 3031 3032 3033 3033 3034 3035 3036 3036 3036 3036 3036 3036 3036 3035 3035 3035 3034 3033 3032 3031 3030 3029 3028 3027 3026 3025 3023 3022 3021 3019 3018 3017 3015 3014 3013 3011 3010 3009 3008
2999 3000 3000 3001 3001 3002 3003 3004 3005 3005 3006 3007 3008 3008 3008 3009 3009 3009 3010 3010 3011 3011 3011 3010 3010 3010 3010 3010 3010 3010 3010 3011 3012 3013 3013 3014 3015 3017 3019 3020 3022 3023 3024 3026 3027 3027 3028 3028 3029 3030 3030 3031 3032 3032 3032 3032 3032 3032 3032 3032 3031 3031 3030 3030 3029 3028 3027 3026 3025 3024 3022 3021 3020 3019 3018 3016 3015 3014 3012 3011 3010 3009 3007 3006 3005
2997 2998 2998 2998 2999 2999 3000 3001 3003 3003 3003 3004 3004 3005 3005 3005 3006 3006 3006 3007 3007 3007 3008 3008 3008 3007 3007 3007 3007 3007 3007 3008 3008 3009 3009 3011 3012 3014 3016 3017 3019 3020 3021 3022 3023 3024 3024 3025 3025 3026 3026 3027 3028 3028 3028 3028 3028 3028 3028 3028 3028 3027 3026 3026 3025 3024 3023 3022 3021 3020 3019 3018 3017 3016 3015 3013 3012 3010 3009 3008 3007 3006 3005 3003 3002